Home > Weather > Luoyang > Past weeks

Flag for China Weather for the Past 2 Weeks in Luoyang, Henan, China

Now
46 °F

Overcast.


Feels Like: 44 °F
Forecast: 44 / 49 °F
Wind: 6 mph from North

Location: Zhengzhou Airport

Current Time: Feb 11, 2016 at 12:32:01 PM

Latest Report: Feb 11, 2016 at 12:00 PM


Visibility: 1 mi

Pressure: 29.95 "Hg

Humidity: 43%

Dew point: 25 °F

Location of LuoyangLocation

Historic Weather in Luoyang — Graph

°F

Luoyang Temperature Yesterday

Maximum temperature yesterday: 52 °F (at 2:00 PM)
Minimum temperature yesterday: 39 °F (at 3:00 AM)
Average temperature yesterday: 45 °F

High & Low Weather Summary for the Past Weeks

 TemperatureHumidityPressure
High70 °F (Feb 8, 3:00 PM)93% (Jan 30, 6:00 AM)30.69 "Hg (Jan 30, 6:00 AM)
Low14 °F (Feb 1, 3:00 AM)9% (Feb 8, 3:00 PM)29.89 "Hg (Feb 10, 2:00 PM)
Average38 °F47%30.32 "Hg
* Reported Jan 27 12:00 Noon — Feb 11 11:00 AM, Luoyang, Weather by CustomWeather, © 2016

Note: Actual official high and low records may vary slightly from our data, if they occured in-between our weather recording intervals... More about our weather records

Advertising

Luoyang Weather History for the Previous 24 Hours

 ConditionsComfort  
Time TempWeatherWind HumidityBarometerVisibility
11:00 AM
Thu, Feb 11
46 °FOvercast.6 mph43%29.98 "Hg1 mi
10:00 AM46 °FLight rain. Overcast.10 mph37%29.98 "Hg1 mi
9:00 AM45 °FLight rain. Overcast.6 mph46%29.98 "Hg1 mi
8:00 AM45 °FOvercast.6 mph46%29.95 "Hg1 mi
7:00 AM45 °FOvercast.8 mph46%29.95 "Hg1 mi
6:00 AM45 °FOvercast.6 mph49%29.92 "Hg1 mi
5:00 AM45 °FLight rain. Overcast.8 mph53%29.92 "Hg1 mi
4:00 AM45 °FLight rain. Overcast.8 mph61%29.92 "Hg1 mi
3:00 AM45 °FLight rain. Overcast.3 mph66%29.92 "Hg1 mi
2:00 AM45 °FLight rain. Overcast.3 mph71%29.95 "Hg2 mi
1:00 AM45 °FLight rain. Overcast.3 mph71%29.95 "Hg2 mi
12:00 AM45 °FLight rain. Overcast.3 mph66%29.95 "Hg2 mi
11:00 PM
Wed, Feb 10
46 °FHaze.6 mph57%29.95 "Hg2 mi
10:00 PM46 °FHaze.6 mph57%29.95 "Hg2 mi
9:00 PM46 °FHaze.3 mph62%29.95 "Hg2 mi
8:00 PM45 °FHaze.3 mph66%29.95 "Hg2 mi
7:00 PM46 °FHaze.3 mph62%29.92 "Hg2 mi
6:00 PM48 °FHaze.6 mph58%29.92 "Hg2 mi
5:00 PM50 °FHaze.8 mph54%29.89 "Hg2 mi
4:00 PM50 °FHaze.8 mph54%29.89 "Hg2 mi
3:00 PM52 °FHaze.6 mph50%29.89 "Hg2 mi
2:00 PM52 °FHaze.6 mph50%29.89 "Hg2 mi
1:00 PM48 °FHaze.6 mph58%29.92 "Hg1 mi
12:00 PM48 °FHaze.6 mph58%29.98 "Hg1 mi
Weather by CustomWeather, © 2016

See weather overviewHow to use our weather pages